sat.trackr.live / text

‹ back to catalog

STARLINK-31393

NORAD 59252 · 2024-049X

PAYLOAD ACTIVE UNKNOWN

§ Identity

Operator
Country
US
Launch date
2024-03-16
Launch site
AFETR
Launch vehicle
Mass (kg)
RCS (m²)

Purposes: comms

External: N2YO · Heavens-Above · Gunter

§ Orbital elements

Epoch: 2026-05-25T01:22:22.535328Z

Period
94.27 min
Inclination
43.0042°
Eccentricity
0.0001480
Mean motion
15.27584346 rev/d
Perigee alt
482.0 km
Apogee alt
484.1 km
Semi-major
6,861.2 km
B*
5.5713e-5
RAAN
57.6944°
Arg perigee
273.8850°
Mean anomaly
86.1832°
Rev number
12,425

§ Raw data

STARLINK-313931 59252U 24049X   26145.05720527  .00001271  00000+0  55713-4 0  99932 59252  43.0042  57.6944 0001480 273.8850  86.1832 15.27584346124256

JSON: /api/v1/satellites/59252 · /tle

For live sub-satellite position, see the globe view (requires WebGL).

§ Visibility from observer

Set your observer location to see the next 7 days of passes ≥ 10°. The values pass through the URL so the page stays shareable.

No JS? Fill the form by hand. The geolocation button needs JavaScript.